Overview Statistics Trail Chart Weather Telemetry Raw packets
 

This is the latest recevied weather packets stored in our database for station/object K7KAR-2. If no packets are shown the sender has not sent any weather packets the latest 10 day(s).

<< 104 105 106 107 108 109 110 >>
Time Temp. Humidity Pressure Rain* Wind** Luminosity Snow
1787829096 15° C 59% 1017.5 hPa 0 mm - 0 W/m² -
1787828790 14.44° C 59% 1017.7 hPa 0 mm - 0 W/m² -
1787828487 14.44° C 60% 1017.8 hPa 0 mm - 0 W/m² -
1787828186 15° C 57% 1017.6 hPa 0 mm - 0 W/m² -
1787827885 16.11° C 54% 1017.7 hPa 0 mm - 0 W/m² -
1787827580 16.11° C 54% 1017.9 hPa 0 mm - 0 W/m² -
1787827275 16.11° C 53% 1017.7 hPa 0 mm - 0 W/m² -
1787826974 15.56° C 55% 1017.7 hPa 0 mm - 0 W/m² -
1787826668 15.56° C 55% 1017.6 hPa 0 mm - 0 W/m² -
1787826364 15° C 55% 1017.5 hPa 0 mm - 0 W/m² -
1787826061 16.67° C 51% 1017.5 hPa 0 mm - 0 W/m² -
1787825759 16.11° C 52% 1017.2 hPa 0 mm - 0 W/m² -
1787825458 15.56° C 54% 1017.7 hPa 0 mm - 0 W/m² -
1787825157 15° C 54% 1017.6 hPa 0 mm - 0 W/m² -
1787824855 15° C 55% 1017.5 hPa 0 mm - 0 W/m² -
1787824548 15° C 55% 1017.8 hPa 0 mm - 0 W/m² -
1787824249 15.56° C 54% 1018 hPa 0 mm - 0 W/m² -
1787823945 16.11° C 51% 1017.6 hPa 0 mm - 0 W/m² -
1787823640 16.67° C 49% 1017.9 hPa 0 mm - 0 W/m² -
1787823334 16.67° C 48% 1017.9 hPa 0 mm - 0 W/m² -
1787823033 17.22° C 47% 1017.9 hPa 0 mm - 0 W/m² -
1787822721 17.22° C 47% 1017.8 hPa 0 mm - 0 W/m² -
1787822416 17.78° C 47% 1017.8 hPa 0 mm - 0 W/m² -
1787822112 17.78° C 46% 1017.9 hPa 0 mm - 0 W/m² -
1787821810 17.78° C 46% 1018.1 hPa 0 mm - 0 W/m² -

* Rain latest hour (hover to see other rain measurements)
** Current wind speed in m/s (hover to see current wind gust speed)